Regional Weather Roundup
Issued by NWS

Home | Current Version | Previous Version | Graphics & Text | Print | Product List | Glossary On
Versions: 1 2 3 4 5 6 7 8 9 10 11 12 13 14 15 16 17 18 19 20 21 22 23 24 25 26 27 28 29 30 31 32 33 34 35 36 37 38 39 40 41 42 43 44 45 46 47 48 49 50
000
ASUS45 KABQ 221001
RWRNM
WEATHER ROUNDUP FOR NEW MEXICO
NATIONAL WEATHER SERVICE ALBUQUERQUE NM
400 AM MDT MON SEP 22 2014

NOTE: "FAIR" MEANS FEW OR NO CLOUDS BELOW 12,000 FEET AGL WITH NO
       SIGNIFICANT WEATHER OR OBSTRUCTIONS TO VISION.

      THIS PRODUCT IS RELEASED AS TWO VERSIONS.  ONE VERSION NEAR
      THE TOP OF THE HOUR CONTAINING PRELIMINARY DATA FROM ALBUQUERQUE
      AND OTHER STATIONS.  A FINAL VERSION WITH ADDITIONAL DATA IS
      ISSUED ABOUT 10 MINUTES AFTER THE HOUR.

NMZ501-503-504-510>518-221100-
NORTHWEST PLATEAU/NORTHCENTRAL MOUNTAINS

CITY           SKY/WX    TMP DP  RH WIND       PRES   REMARKS
FARMINGTON     LGT RAIN  63  58  83 SE5       30.26F
LOS ALAMOS     PTCLDY    57  53  85 S6        30.42F
SANTA FE       CLOUDY    62  54  74 S6        30.37S
TAOS           CLOUDY    57  46  67 SE5       30.41S
ANGEL FIRE     LGT RAIN  53  47  81 CALM      30.50S

$$
NMZ402-403-502-505>509-221100-
WESTCENTRAL MOUNTAINS/SOUTHWEST MOUNTAINS

CITY           SKY/WX    TMP DP  RH WIND       PRES   REMARKS
GALLUP         CLOUDY    61  56  83 CALM      30.30F
GRANTS         CLOUDY    57  54  88 S14       30.35S
SILVER CITY    CLOUDY    63  59  88 SE5       30.28F

$$
NMZ407-409-411-412-221100-
SOUTHERN DESERTS

CITY           SKY/WX    TMP DP  RH WIND       PRES   REMARKS
LORDSBURG      PTSUNNY   64  64 100 MISG      30.18S
DEMING         CLOUDY    68  65  90 NE8       30.20S
LAS CRUCES     CLOUDY    68  63  83 SE6       30.21F
HOLLOMAN AFB   CLOUDY    67  63  89 E6        30.18F
ALAMOGORDO     CLOUDY    68  61  77 N8        30.21S
T OR C         CLOUDY    66  62  87 NW5       30.23F

$$
NMZ519>523-221100-
CENTRAL VALLEYS/CENTRAL HIGHLANDS

CITY           SKY/WX    TMP DP  RH WIND       PRES   REMARKS
ALBUQUERQUE    CLOUDY    66  55  67 E12       30.29S
DOUBLE EAGLE   MOCLDY    60  54  80 E6        30.32F
CLINES CORNERS CLOUDY    57  56  96 E9        30.40S FOG
BELEN          CLOUDY    66  56  71 CALM      30.29R
SOCORRO        CLOUDY    64  61  88 CALM      30.26S

$$
NMZ524>526-539-540-221100-
SOUTHCENTRAL MOUNTAINS

CITY           SKY/WX    TMP DP  RH WIND       PRES   REMARKS
RUIDOSO        NOT AVBL

$$
NMZ527>531-221100-
NORTHEAST HIGHLANDS/NORTHEAST PLAINS

CITY           SKY/WX    TMP DP  RH WIND       PRES   REMARKS
LAS VEGAS      LGT RAIN  56  55  97 N5        30.42F FOG
RATON          CLOUDY    58  57  97 SW7       30.39F
CLAYTON        CLOUDY    61  55  81 S9        30.35F

$$
NMZ532>537-221100-
EASTCENTRAL PLAINS

CITY           SKY/WX    TMP DP  RH WIND       PRES   REMARKS
TUCUMCARI      CLOUDY    66  63  90 E7        30.30S
CANNON AFB     NOT AVBL
CLOVIS AIRPORT   N/A     63  57  82 E12       30.33S

$$
NMZ028-029-538-221100-
SOUTHEAST PLAINS

CITY           SKY/WX    TMP DP  RH WIND       PRES   REMARKS
ROSWELL        CLOUDY    68  66  93 E5        30.24F
CARLSBAD       CLOUDY    69  32  25 NE3       30.20S
HOBBS          MOCLDY    66  66 100 NE9       30.25S


$$


USA.gov is the U.S. government's official web portal to all federal, state and local government web resources and services.